Regional Weather Roundup
Issued by NWS Sioux Falls, SD

Home | Current Version | Previous Version | Graphics & Text | Print | Product List | Glossary Off
Versions: 1 2 3 4 5 6 7 8 9 10 11 12 13 14 15 16 17 18 19 20 21 22 23 24 25 26 27 28 29 30 31 32 33 34 35 36 37 38 39 40 41 42 43 44 45 46 47 48 49 50

000
ASUS43 KFSD 281810
RWRFSD

WEATHER ROUNDUP FOR SE SOUTH DAKOTA/SW MINNESOTA/NW IOWA
NATIONAL WEATHER SERVICE SIOUX FALLS SD
100 PM CDT THU MAY 28 2015

NOTE: "FAIR" INDICATES FEW OR NO CLOUDS BELOW 12,000 FEET WITH NO
SIGNIFICANT WEATHER AND OR OBSTRUCTIONS TO VISIBILITY.


SDZ038>040-050-052>070-281900-
SOUTHEAST SOUTH DAKOTA

CITY           SKY/WX    TMP DP  RH WIND       PRES   REMARKS
BROOKINGS      MOSUNNY   73  59  60 S20       29.98F
CHAMBERLAIN    MOSUNNY   79  58  49 SW12G17   29.88F
6HR MIN TEMP:  61; 6HR MAX TEMP:  79;

HURON            N/A    N/A N/A N/A MISG      29.88F
MADISON        FAIR      73  64  73 S20       29.96F
MITCHELL       MOSUNNY   81  60  48 S18G28    29.90F
6HR MIN TEMP:  64; 6HR MAX TEMP:  82;

SIOUX FALLS    PTSUNNY   79  58  48 S17       29.96F
6HR MIN TEMP:  65; 6HR MAX TEMP:  79; 6HR PCP: TRACE;

WINNER         FAIR      80  55  42 S13       29.90S
YANKTON        MOSUNNY   82  57  42 S21       29.92F
$$

MNZ071-072-080-081-089-090-097-098-281900-
SOUTHWEST MINNESOTA

CITY           SKY/WX    TMP DP  RH WIND       PRES   REMARKS
FAIRMONT       MOSUNNY   79  54  41 S22       30.04S
JACKSON        MOSUNNY   81  50  34 S16G25    30.05S
LUVERNE        MOSUNNY   81  50  34 S17G29    29.99F
MARSHALL       CLOUDY    81  52  36 S17G24    29.97F
6HR MIN TEMP:  64; 6HR MAX TEMP:  81;

MONTEVIDEO     CLOUDY    75  57  53 SW10G17   29.97F
REDWOOD FALLS  MOSUNNY   82  49  31 SW14      29.99F
TRACY          PTSUNNY   82  50  32 SW17G24   29.99F
WINDOM         MOSUNNY   81  48  32 S13G24    30.03S
WORTHINGTON    MOSUNNY   79  48  34 S18G24    30.02F
$$

IAZ001>003-012>014-020>022-031-032-NEZ013-014-SDZ071-281900-
NORTHWEST IOWA

CITY           SKY/WX    TMP DP  RH WIND       PRES   REMARKS
CHEROKEE       MOSUNNY   78  55  44 S17G26    30.02F
DENISON        CLOUDY    73  61  64 SE8G16    30.01F
ESTHERVILLE    MOSUNNY   77  55  46 S20G28    30.04F
LE MARS        MOSUNNY   79  59  50 SE15G22   30.00F
ORANGE CITY    MOSUNNY   79  54  41 S15G22    30.00F
SHELDON        MOSUNNY   81  57  44 S22G28    30.01S
SIOUX CITY     PTSUNNY   77  60  55 SE10G21   30.00S
6HR MIN TEMP:  60; 6HR MAX TEMP:  78;

SPENCER        MOSUNNY   79  54  41 S16G26    30.03F
6HR MIN TEMP:  59; 6HR MAX TEMP:  79;

STORM LAKE     PTSUNNY   75  54  46 S20G26    30.05S
$$

ABBREVIATIONS USED IN REMARKS
   TC - TEMPERATURE IN CELSIUS
  WCI - WIND CHILL INDEX
   HX - HEAT INDEX
  VSB - VISIBILITY




USA.gov is the U.S. government's official web portal to all federal, state and local government web resources and services.